ICE1ER BIKF-EDDB

Flight info

Callsign ICE1ER
Flight time N/A
Altitude 35000
Route LUTER3C LUTER DCT 64N010W DCT IPTON/N0439F370 DCT RASVI DCT RIDSI DCT GITER DCT MICOS/N0405F230 Z990 IRKIS L619 VIBIS T209 OGBER
Aircraft B752/M-SDE2E3FGHIJ3J4J7RWXY/LB1

Departure

Time 2026-04-29 16:57
Airport Keflavik International Airport (BIKF)

Arrival

Time N/A
Airport Berlin Brandenburg Airport (EDDB)
Time Latitude Longitude Altitude Speed Heading
2026-04-29 16:38 63.99484 -22.62478 141 ft 0 kts 90°
2026-04-29 16:45 63.99485 -22.62504 141 ft 2 kts 90°
2026-04-29 16:45 63.99485 -22.62538 141 ft 2 kts 90°
2026-04-29 16:46 63.99485 -22.62572 141 ft 2 kts 90°
2026-04-29 16:46 63.99485 -22.62606 141 ft 2 kts 90°
2026-04-29 16:46 63.99487 -22.62639 141 ft 2 kts 123°
2026-04-29 16:46 63.99498 -22.62661 141 ft 2 kts 158°
2026-04-29 16:47 63.99507 -22.62665 141 ft 1 kts 180°
2026-04-29 16:47 63.99512 -22.62665 141 ft 0 kts 180°
2026-04-29 16:49 63.99497 -22.62664 141 ft 5 kts 179°
2026-04-29 16:49 63.99448 -22.62673 141 ft 8 kts 197°
2026-04-29 16:50 63.99385 -22.62731 141 ft 10 kts 197°
2026-04-29 16:50 63.99307 -22.62752 141 ft 10 kts 180°
2026-04-29 16:50 63.99248 -22.62706 141 ft 8 kts 146°
2026-04-29 16:50 63.99200 -22.62688 141 ft 5 kts 176°
2026-04-29 16:51 63.99185 -22.62670 141 ft 2 kts 132°
2026-04-29 16:51 63.99178 -22.62639 141 ft 0 kts 109°
2026-04-29 16:51 63.99175 -22.62607 141 ft 3 kts 98°
2026-04-29 16:51 63.99174 -22.62578 141 ft 0 kts 94°
2026-04-29 16:53 63.99173 -22.62558 141 ft 4 kts 92°
2026-04-29 16:53 63.99173 -22.62464 142 ft 6 kts 90°
2026-04-29 16:54 63.99173 -22.62359 144 ft 6 kts 89°
2026-04-29 16:54 63.99173 -22.62232 144 ft 12 kts 90°
2026-04-29 16:54 63.99173 -22.61976 144 ft 20 kts 91°
2026-04-29 16:54 63.99173 -22.61623 144 ft 22 kts 90°
2026-04-29 16:55 63.99172 -22.61295 145 ft 16 kts 89°
2026-04-29 16:55 63.99172 -22.61079 148 ft 11 kts 90°
2026-04-29 16:55 63.99173 -22.60918 148 ft 9 kts 90°
2026-04-29 16:55 63.99172 -22.60793 148 ft 6 kts 90°
2026-04-29 16:56 63.99171 -22.60691 148 ft 6 kts 91°
2026-04-29 16:56 63.99170 -22.60596 148 ft 5 kts 99°
2026-04-29 16:56 63.99130 -22.60550 148 ft 9 kts 180°
2026-04-29 16:56 63.98843 -22.60564 154 ft 82 kts 180°
2026-04-29 16:57 63.98022 -22.60567 275 ft 146 kts 183°
2026-04-29 16:57 63.96930 -22.60514 1043 ft 171 kts 184°
2026-04-29 16:57 63.95765 -22.60031 2185 ft 188 kts 156°
2026-04-29 16:57 63.94713 -22.57904 2876 ft 230 kts 135°
2026-04-29 16:58 63.93763 -22.54388 3072 ft 291 kts 117°
2026-04-29 16:58 63.93211 -22.50011 3659 ft 276 kts 110°
2026-04-29 16:58 63.92656 -22.45973 4344 ft 268 kts 116°
2026-04-29 16:58 63.91997 -22.42041 5049 ft 273 kts 117°
2026-04-29 16:59 63.91274 -22.38067 5755 ft 273 kts 119°
2026-04-29 16:59 63.90525 -22.34148 6457 ft 275 kts 121°
2026-04-29 16:59 63.89742 -22.30163 7169 ft 276 kts 121°
2026-04-29 16:59 63.88948 -22.26196 7874 ft 282 kts 122°
2026-04-29 17:00 63.88137 -22.22176 8570 ft 285 kts 123°
2026-04-29 17:00 63.87299 -22.18054 9278 ft 290 kts 123°
2026-04-29 17:00 63.86453 -22.13914 9981 ft 296 kts 124°
2026-04-29 17:00 63.85590 -22.09700 10696 ft 299 kts 124°
2026-04-29 17:01 63.84699 -22.05370 11405 ft 306 kts 125°
2026-04-29 17:01 63.83922 -22.00843 12116 ft 323 kts 111°
2026-04-29 17:01 63.83727 -21.95625 12847 ft 342 kts 95°
2026-04-29 17:01 63.83863 -21.90225 13566 ft 349 kts 95°
2026-04-29 17:02 63.83966 -21.84689 14282 ft 354 kts 96°
2026-04-29 17:02 63.84061 -21.79173 14977 ft 359 kts 96°
2026-04-29 17:02 63.84151 -21.73456 15690 ft 364 kts 96°
2026-04-29 17:02 63.84238 -21.67717 16395 ft 369 kts 97°
2026-04-29 17:03 63.84338 -21.61937 17101 ft 375 kts 93°
2026-04-29 17:03 63.84887 -21.56060 17824 ft 390 kts 75°
2026-04-29 17:03 63.86054 -21.50469 18554 ft 398 kts 67°
2026-04-29 17:03 63.87339 -21.44924 19246 ft 399 kts 68°
2026-04-29 17:04 63.88608 -21.39386 19939 ft 399 kts 68°
2026-04-29 17:04 63.89874 -21.33868 20635 ft 399 kts 69°
2026-04-29 17:04 63.91156 -21.28268 21305 ft 399 kts 70°
2026-04-29 17:04 63.92421 -21.22744 21978 ft 397 kts 71°
2026-04-29 17:05 63.93684 -21.17186 22549 ft 400 kts 71°
2026-04-29 17:05 63.94970 -21.11531 23013 ft 405 kts 71°
2026-04-29 17:05 63.96271 -21.05784 23500 ft 409 kts 71°
2026-04-29 17:05 63.97562 -21.00074 23946 ft 412 kts 72°
2026-04-29 17:06 63.98874 -20.94260 24416 ft 416 kts 71°
2026-04-29 17:06 64.00199 -20.88367 24851 ft 419 kts 71°
2026-04-29 17:06 64.01521 -20.82480 25311 ft 421 kts 72°
2026-04-29 17:06 64.02853 -20.76526 25787 ft 423 kts 72°
2026-04-29 17:07 64.04185 -20.70551 26168 ft 428 kts 72°
2026-04-29 17:07 64.05078 -20.66532 26410 ft 431 kts 71°
2026-04-29 17:07 64.06894 -20.58348 26908 ft 437 kts 72°
2026-04-29 17:07 64.08255 -20.52204 27288 ft 440 kts 72°
2026-04-29 17:08 64.09639 -20.45925 27660 ft 444 kts 72°
2026-04-29 17:08 64.10965 -20.39519 28018 ft 440 kts 81°
2026-04-29 17:08 64.11700 -20.33012 28400 ft 418 kts 98°
2026-04-29 17:08 64.11947 -20.26449 28743 ft 413 kts 103°
2026-04-29 17:09 64.12135 -20.19924 29073 ft 415 kts 102°
2026-04-29 17:09 64.12307 -20.13373 29407 ft 417 kts 104°
2026-04-29 17:09 64.12466 -20.06722 29726 ft 419 kts 104°
2026-04-29 17:09 64.12619 -20.00061 30107 ft 419 kts 103°
2026-04-29 17:10 64.12763 -19.93452 30526 ft 418 kts 104°
2026-04-29 17:10 64.12906 -19.86800 30909 ft 417 kts 104°
2026-04-29 17:10 64.13042 -19.80223 31317 ft 415 kts 103°
2026-04-29 17:10 64.13172 -19.73713 31692 ft 413 kts 103°
2026-04-29 17:11 64.13303 -19.67170 32076 ft 411 kts 104°
2026-04-29 17:11 64.13427 -19.60656 32363 ft 411 kts 102°
2026-04-29 17:11 64.13547 -19.54159 32636 ft 411 kts 102°
2026-04-29 17:11 64.13670 -19.47607 32963 ft 410 kts 101°
2026-04-29 17:12 64.13785 -19.41157 33208 ft 409 kts 103°
2026-04-29 17:12 64.13899 -19.34736 33495 ft 407 kts 103°
2026-04-29 17:12 64.14007 -19.28305 33761 ft 405 kts 103°
2026-04-29 17:12 64.14082 -19.23963 33958 ft 403 kts 104°
2026-04-29 17:13 64.14218 -19.15509 34320 ft 399 kts 104°
2026-04-29 17:13 64.14317 -19.09169 34543 ft 398 kts 105°
2026-04-29 17:13 64.14412 -19.02906 34739 ft 396 kts 103°
2026-04-29 17:13 64.14502 -18.96603 34876 ft 398 kts 103°
2026-04-29 17:14 64.14679 -18.83786 34909 ft 411 kts 103°
2026-04-29 17:14 64.14856 -18.70547 35045 ft 418 kts 102°
2026-04-29 17:15 64.14942 -18.63884 35222 ft 419 kts 101°
2026-04-29 17:15 64.15021 -18.57258 35345 ft 420 kts 102°
2026-04-29 17:15 64.15101 -18.50555 35475 ft 421 kts 102°
2026-04-29 17:15 64.15176 -18.43850 35610 ft 422 kts 102°
2026-04-29 17:16 64.15250 -18.37176 35767 ft 423 kts 101°
2026-04-29 17:16 64.15316 -18.30419 35898 ft 424 kts 101°
2026-04-29 17:16 64.15386 -18.23735 36043 ft 424 kts 102°
2026-04-29 17:16 64.15448 -18.16962 36170 ft 425 kts 102°
2026-04-29 17:17 64.15507 -18.10188 36307 ft 425 kts 101°
2026-04-29 17:17 64.15565 -18.03468 36467 ft 425 kts 100°
2026-04-29 17:17 64.15620 -17.96702 36590 ft 425 kts 100°
2026-04-29 17:17 64.15670 -17.89938 36723 ft 425 kts 101°
2026-04-29 17:18 64.15720 -17.83177 36858 ft 424 kts 99°
2026-04-29 17:18 64.15762 -17.76329 36851 ft 428 kts 99°
2026-04-29 17:18 64.15842 -17.62675 36875 ft 434 kts 99°
2026-04-29 17:19 64.15912 -17.48721 36888 ft 440 kts 99°
2026-04-29 17:19 64.15967 -17.34631 36898 ft 447 kts 100°
2026-04-29 17:20 64.16011 -17.20232 36906 ft 453 kts 100°
2026-04-29 17:20 64.16041 -17.05732 36910 ft 460 kts 99°
2026-04-29 17:21 64.16054 -16.91035 36909 ft 468 kts 99°
2026-04-29 17:21 64.16045 -16.75987 36882 ft 476 kts 99°
2026-04-29 17:22 64.16036 -16.60780 36865 ft 484 kts 98°
2026-04-29 17:22 64.16005 -16.45218 36873 ft 491 kts 98°
2026-04-29 17:23 64.15987 -16.37458 37018 ft 490 kts 98°
2026-04-29 17:23 64.15957 -16.29654 36740 ft 495 kts 99°
2026-04-29 17:23 64.15930 -16.21841 36918 ft 493 kts 99°
2026-04-29 17:23 64.15894 -16.13980 36907 ft 497 kts 99°
2026-04-29 17:24 64.15807 -15.98109 36911 ft 504 kts 99°
2026-04-29 17:24 64.15706 -15.81983 36934 ft 509 kts 98°
2026-04-29 17:25 64.15585 -15.65798 36955 ft 514 kts 98°
2026-04-29 17:25 64.15443 -15.49342 36986 ft 519 kts 99°